GW1800 Weather Reports


time (UTC)temp
C
wind
direction
speed
KPH
gust
KPH
rain 1hr
cm
rain 24hr
cm
rain mn
cm
humidity
%
barometer
mb
20260505102021 15 189 0.0 1.6 0.18 0.03 0.03 90 993.0
20260505101520 15 177 1.6 3.2 0.00 0.00 0.00 89 993.0
20260505101016 15 240 1.6 3.2 0.00 0.00 0.00 87 993.1
20260505100513 15 193 1.6 3.2 0.00 0.00 0.00 83 993.0
20260505100010 16 225 9.7 16.1 0.00 0.00 0.00 79 992.9
20260505095506 16 203 3.2 4.8 0.00 0.00 0.00 75 993.0
20260505095002 16 263 4.8 8.0 0.00 0.00 0.00 73 992.6
20260505094459 17 212 3.2 3.2 0.00 0.00 0.00 69 992.6
20260505093955 17 219 6.4 8.0 0.00 0.00 0.00 67 992.6
20260505093452 17 189 4.8 4.8 0.00 0.00 0.00 67 992.3
20260505092949 17 197 3.2 3.2 0.00 0.00 0.00 66 992.5
20260505092446 17 228 6.4 11.3 0.00 0.00 0.00 66 992.2
20260505091944 17 233 9.7 12.9 0.00 0.00 0.00 65 991.7
20260505091441 17 262 9.7 11.3 0.00 0.00 0.00 66 991.9
20260505090939 17 210 4.8 8.0 0.00 0.00 0.00 66 991.6
20260505090437 17 230 6.4 8.0 0.00 0.00 0.00 66 991.6
20260505085934 17 183 3.2 4.8 0.00 0.00 0.00 66 991.6
20260505085432 17 223 8.0 11.3 0.00 0.00 0.00 66 991.3
20260505084930 17 176 8.0 11.3 0.00 0.00 0.00 66 991.4
20260505084428 17 204 3.2 3.2 0.00 0.00 0.00 66 991.2
20260505083926 17 243 4.8 4.8 0.00 0.00 0.00 66 991.3
20260505083423 17 221 9.7 12.9 0.00 0.00 0.00 65 991.1
20260505082919 17 202 6.4 11.3 0.00 0.00 0.00 65 991.0
20260505082415 17 215 8.0 11.3 0.00 0.00 0.00 66 990.9
20260505081912 17 199 4.8 8.0 0.00 0.00 0.00 66 990.6
20260505081409 17 237 11.3 12.9 0.00 0.00 0.00 65 990.5
20260505080905 17 218 8.0 9.7 0.00 0.00 0.00 65 990.5
20260505080401 17 239 12.9 14.5 0.00 0.00 0.00 65 990.4
20260505075857 17 182 8.0 9.7 0.00 0.00 0.00 66 990.5
20260505075354 17 207 6.4 8.0 0.00 0.00 0.00 66 990.6
20260505074851 17 218 4.8 8.0 0.00 0.00 0.00 66 990.5
20260505074348 17 232 8.0 9.7 0.00 0.00 0.00 65 990.7
20260505073846 17 233 8.0 11.3 0.00 0.00 0.00 66 990.4
20260505073344 17 230 4.8 4.8 0.00 0.00 0.00 65 990.4
20260505072840 17 235 6.4 8.0 0.00 0.00 0.00 65 990.5
20260505072336 17 231 11.3 14.5 0.00 0.00 0.00 65 990.4
20260505071833 17 219 9.7 12.9 0.00 0.00 0.00 65 990.3
20260505071329 17 213 6.4 9.7 0.00 0.00 0.00 65 990.2
20260505070828 18 212 8.0 8.0 0.00 0.00 0.00 65 990.3
20260505070323 17 204 6.4 8.0 0.00 0.00 0.00 65 990.4
20260505065819 17 191 9.7 11.3 0.00 0.00 0.00 64 990.5
20260505065316 18 197 6.4 9.7 0.00 0.00 0.00 64 990.4
20260505064813 18 192 6.4 9.7 0.00 0.00 0.00 64 990.6
20260505064310 17 210 4.8 4.8 0.00 0.00 0.00 64 990.5
20260505063808 17 192 12.9 16.1 0.00 0.00 0.00 64 990.6
20260505063304 18 211 8.0 9.7 0.00 0.00 0.00 64 990.5
20260505062800 18 214 4.8 8.0 0.00 0.00 0.00 64 990.5
20260505062258 18 246 9.7 12.9 0.00 0.00 0.00 64 990.6
20260505061755 18 248 16.1 20.9 0.00 0.00 0.00 63 990.4
20260505061253 18 252 8.0 11.3 0.00 0.00 0.00 63 990.3
20260505060750 18 224 6.4 9.7 0.00 0.00 0.00 64 990.2
20260505060247 18 245 8.0 11.3 0.00 0.00 0.00 64 990.3
20260505055742 18 197 6.4 9.7 0.00 0.00 0.00 64 990.3
20260505055238 18 256 6.4 9.7 0.00 0.00 0.00 64 990.0
20260505054736 18 180 4.8 4.8 0.00 0.00 0.00 64 989.9
20260505054234 18 206 6.4 8.0 0.00 0.00 0.00 63 990.0
20260505053732 18 231 8.0 11.3 0.00 0.00 0.00 63 990.0
20260505053228 18 221 9.7 12.9 0.00 0.00 0.00 63 990.0
20260505052725 18 220 9.7 12.9 0.00 0.00 0.00 64 990.1
20260505052222 18 215 6.4 9.7 0.00 0.00 0.00 63 990.1
20260505051719 18 246 8.0 12.9 0.00 0.00 0.00 64 990.0
20260505051217 18 220 6.4 8.0 0.00 0.00 0.00 64 990.3
20260505050715 18 235 8.0 11.3 0.00 0.00 0.00 64 990.2
20260505050213 18 219 8.0 12.9 0.00 0.00 0.00 63 990.3
20260505041642 18 198 6.4 8.0 0.00 0.00 0.00 63 990.6
20260505041140 18 178 8.0 9.7 0.00 0.00 0.00 63 990.4
20260505040637 19 204 4.8 8.0 0.00 0.00 0.00 63 990.6
20260505040134 19 231 12.9 17.7 0.00 0.00 0.00 62 990.5
20260505035630 19 221 8.0 11.3 0.00 0.00 0.00 63 990.6
20260505035126 19 232 4.8 8.0 0.00 0.00 0.00 64 990.6
20260505034623 18 205 9.7 11.3 0.00 0.00 0.00 64 990.5
20260505034120 19 236 9.7 11.3 0.00 0.00 0.00 64 990.6
20260505033617 18 229 9.7 12.9 0.00 0.00 0.00 64 990.7
20260505033116 19 163 1.6 3.2 0.00 0.00 0.00 64 990.6
20260505032613 18 264 4.8 8.0 0.00 0.00 0.00 64 990.6
20260505032109 18 223 4.8 8.0 0.00 0.00 0.00 65 990.5
20260505031607 19 204 8.0 11.3 0.00 0.00 0.00 64 990.4
20260505031103 18 212 4.8 8.0 0.00 0.00 0.00 64 990.4
20260505030600 19 188 3.2 3.2 0.00 0.00 0.00 64 990.3
20260505030055 19 206 4.8 8.0 0.00 0.00 0.00 64 990.3
20260505025551 19 177 3.2 3.2 0.00 0.00 0.00 64 990.3
20260505025051 19 188 4.8 4.8 0.00 0.00 0.00 64 990.2
20260505024547 19 199 4.8 4.8 0.00 0.00 0.00 64 990.3
20260505024044 19 196 8.0 9.7 0.00 0.00 0.00 64 990.2
20260505023541 19 221 1.6 1.6 0.00 0.00 0.00 64 990.2
20260505023039 20 233 4.8 4.8 0.00 0.00 0.00 63 990.0
20260505022536 20 201 4.8 4.8 0.00 0.00 0.00 62 990.1
20260505022034 20 216 3.2 3.2 0.00 0.00 0.00 62 989.9
20260505021530 20 187 4.8 4.8 0.00 0.00 0.00 62 989.9
20260505021026 20 226 6.4 8.0 0.00 0.00 0.00 61 989.6
20260505020520 20 194 4.8 4.8 0.00 0.00 0.00 61 989.6
20260505020018 20 191 3.2 3.2 0.00 0.00 0.00 62 989.7
20260505015515 20 203 1.6 3.2 0.00 0.00 0.00 61 989.4
20260505015012 20 184 1.6 3.2 0.00 0.00 0.00 60 989.4
20260505014509 20 192 3.2 4.8 0.00 0.00 0.00 61 989.2
20260505014006 20 187 6.4 9.7 0.00 0.00 0.00 60 989.3
20260505013503 20 187 3.2 3.2 0.00 0.00 0.00 60 989.3
20260505013000 20 201 3.2 3.2 0.00 0.00 0.00 60 989.3
20260505012458 20 175 3.2 3.2 0.00 0.00 0.00 60 989.4
20260505011955 20 186 4.8 8.0 0.00 0.00 0.00 59 988.9
20260505011451 21 230 4.8 8.0 0.00 0.00 0.00 59 989.3
20260505010948 21 214 3.2 3.2 0.00 0.00 0.00 59 989.1
20260505010443 21 233 4.8 8.0 0.00 0.00 0.00 58 989.2
20260505005940 21 212 4.8 4.8 0.00 0.00 0.00 58 989.2
20260505005436 21 225 8.0 11.3 0.00 0.00 0.00 58 989.2
20260505004934 21 250 4.8 8.0 0.00 0.00 0.00 58 989.2
20260505004430 21 218 8.0 9.7 0.00 0.00 0.00 57 989.0
20260505003928 21 215 4.8 4.8 0.00 0.00 0.00 58 989.1
20260505003425 21 219 9.7 11.3 0.00 0.00 0.00 57 989.3
20260505002921 21 201 3.2 3.2 0.00 0.00 0.00 59 989.3
20260505002417 21 212 4.8 8.0 0.00 0.00 0.00 58 989.3
20260505001916 22 214 3.2 4.8 0.00 0.00 0.00 58 989.3
20260505001413 22 214 4.8 4.8 0.00 0.00 0.00 57 989.6
20260505000910 22 226 3.2 3.2 0.00 0.00 0.00 57 989.5
20260505000408 22 207 1.6 3.2 0.00 0.00 0.00 56 989.4
20260504235904 22 214 3.2 4.8 0.00 0.00 0.00 56 989.3
20260504235402 22 248 8.0 9.7 0.00 0.00 0.00 54 989.5
20260504234857 22 196 1.6 3.2 0.00 0.00 0.00 54 989.4
20260504234355 23 221 4.8 4.8 0.00 0.00 0.00 53 989.7
20260504233852 23 233 16.1 17.7 0.00 0.00 0.00 52 989.8
20260504233348 22 192 4.8 4.8 0.00 0.00 0.00 53 989.9
20260504232844 23 232 6.4 8.0 0.00 0.00 0.00 53 989.9
20260504232342 23 228 11.3 12.9 0.00 0.00 0.00 52 989.8
20260504231838 23 220 6.4 8.0 0.00 0.00 0.00 52 989.9
20260504231335 23 244 11.3 12.9 0.00 0.00 0.00 51 989.9
20260504230831 23 252 9.7 12.9 0.00 0.00 0.00 50 990.0
20260504230329 23 241 8.0 9.7 0.00 0.00 0.00 50 990.1
20260504225828 23 223 4.8 8.0 0.00 0.00 0.00 49 990.1
20260504225324 23 233 6.4 12.9 0.00 0.00 0.00 48 990.2
20260504224821 23 224 11.3 12.9 0.00 0.00 0.00 48 990.1
20260504224318 23 228 12.9 16.1 0.00 0.00 0.00 47 990.3
20260504223815 23 229 9.7 12.9 0.00 0.00 0.00 49 990.3
20260504223310 23 181 4.8 4.8 0.00 0.00 0.00 49 990.1
20260504222807 23 225 12.9 20.9 0.00 0.00 0.00 48 990.1
20260504222305 24 231 12.9 14.5 0.00 0.00 0.00 48 990.3
20260504221802 24 247 16.1 24.1 0.00 0.00 0.00 47 990.3
20260504221259 24 273 12.9 16.1 0.00 0.00 0.00 46 990.2
20260504220755 24 224 8.0 12.9 0.00 0.00 0.00 48 990.4
20260504220252 25 228 11.3 12.9 0.00 0.00 0.00 47 990.1
20260504215750 24 214 8.0 12.9 0.00 0.00 0.00 46 990.4
20260504215246 24 255 8.0 9.7 0.00 0.00 0.00 47 990.3
20260504214742 25 220 12.9 14.5 0.00 0.00 0.00 46 990.5
20260504214238 25 234 11.3 14.5 0.00 0.00 0.00 47 990.5
20260504213735 25 233 11.3 16.1 0.00 0.00 0.00 47 990.2
20260504213232 25 224 6.4 9.7 0.00 0.00 0.00 48 990.0
20260504212729 25 250 9.7 12.9 0.00 0.00 0.00 51 990.5
20260504212225 25 208 11.3 14.5 0.00 0.00 0.00 49 990.4
20260504211723 24 211 4.8 8.0 0.00 0.00 0.00 52 990.7
20260504211219 25 209 6.4 9.7 0.00 0.00 0.00 50 990.5
20260504210717 25 227 6.4 12.9 0.00 0.00 0.00 51 990.6
20260504210214 25 221 6.4 9.7 0.00 0.00 0.00 51 990.5
20260504205711 25 242 4.8 4.8 0.00 0.00 0.00 51 990.6
20260504205208 25 200 11.3 16.1 0.00 0.00 0.00 51 990.6
20260504204706 25 222 8.0 12.9 0.00 0.00 0.00 52 990.7
20260504204204 25 273 14.5 17.7 0.00 0.00 0.00 51 990.6
20260504203703 25 241 4.8 4.8 0.00 0.00 0.00 51 990.7
20260504203200 25 181 1.6 1.6 0.00 0.00 0.00 53 991.0
20260504202654 25 216 1.6 1.6 0.00 0.00 0.00 51 990.9
20260504202152 24 227 4.8 8.0 0.00 0.00 0.00 52 991.1
20260504201648 23 237 4.8 4.8 0.00 0.00 0.00 52 991.0
20260504201146 23 211 4.8 4.8 0.00 0.00 0.00 54 991.2
20260504200643 23 212 4.8 8.0 0.00 0.00 0.00 53 991.3
20260504200140 23 215 4.8 8.0 0.00 0.00 0.00 52 991.4
20260504195635 23 219 8.0 9.7 0.00 0.00 0.00 52 991.4
20260504195132 23 248 4.8 4.8 0.00 0.00 0.00 54 991.6
20260504194629 23 299 8.0 9.7 0.00 0.00 0.00 55 991.6
20260504194125 23 234 11.3 16.1 0.00 0.00 0.00 55 991.7
20260504193621 23 295 11.3 16.1 0.00 0.00 0.00 55 991.7
20260504193120 23 273 6.4 9.7 0.00 0.00 0.00 54 992.0
20260504192617 23 230 4.8 4.8 0.00 0.00 0.00 57 991.9
20260504192115 24 199 6.4 9.7 0.00 0.00 0.00 54 991.9
20260504191614 23 261 6.4 9.7 0.00 0.00 0.00 57 991.9
20260504191109 23 234 4.8 4.8 0.00 0.00 0.00 58 991.9
20260504190606 23 285 4.8 8.0 0.00 0.00 0.00 57 992.0
20260504185559 22 245 4.8 9.7 0.00 0.00 0.00 60 992.1
20260504185055 22 200 11.3 16.1 0.00 0.00 0.00 60 992.4
20260504184551 22 227 8.0 12.9 0.00 0.00 0.00 61 992.6
20260504184046 21 214 8.0 12.9 0.00 0.00 0.00 62 992.5
20260504183544 22 263 8.0 11.3 0.00 0.00 0.00 62 992.5
20260504183042 22 230 8.0 8.0 0.00 0.00 0.00 62 992.3
20260504182539 21 212 6.4 9.7 0.00 0.00 0.00 63 992.4
20260504182036 21 242 12.9 14.5 0.00 0.00 0.00 61 992.3
20260504181533 21 186 8.0 11.3 0.00 0.00 0.00 61 992.2
20260504181031 22 209 12.9 22.5 0.00 0.00 0.00 60 992.3
20260504180530 21 206 3.2 4.8 0.00 0.00 0.00 63 992.0
20260504180028 21 232 8.0 11.3 0.00 0.00 0.00 63 992.0
20260504175525 21 196 8.0 11.3 0.00 0.00 0.00 63 991.9
20260504175022 21 237 9.7 11.3 0.00 0.00 0.00 64 992.2
20260504174520 20 231 11.3 14.5 0.00 0.00 0.00 64 992.3
20260504174017 20 206 4.8 4.8 0.00 0.00 0.00 65 992.3
20260504173513 21 206 12.9 14.5 0.00 0.00 0.00 63 992.3
20260504173011 20 214 8.0 9.7 0.00 0.00 0.00 66 992.3
20260504172507 20 213 6.4 11.3 0.00 0.00 0.00 67 992.2
20260504172003 19 190 8.0 9.7 0.00 0.00 0.00 67 992.2
20260504171500 19 248 8.0 11.3 0.00 0.00 0.00 68 992.4
20260504170957 20 228 12.9 16.1 0.00 0.00 0.00 66 992.3
20260504170453 19 262 4.8 8.0 0.00 0.00 0.00 68 992.3
20260504160413 19 231 8.0 12.9 0.00 0.00 0.00 65 993.1
20260504150837 18 205 6.4 9.7 0.00 0.00 0.00 68 992.9
20260504150334 17 212 4.8 4.8 0.00 0.00 0.00 70 992.7
20260504141304 16 218 16.1 20.9 0.00 0.00 0.00 68 992.6
20260504140801 16 211 6.4 9.7 0.00 0.00 0.00 71 992.5
20260504140256 16 225 6.4 9.7 0.00 0.00 0.00 71 992.8
20260504130725 13 206 3.2 3.2 0.00 0.00 0.00 76 993.4
20260504130220 12 204 6.4 9.7 0.00 0.00 0.00 75 993.4
20260504120145 12 241 9.7 12.9 0.00 0.00 0.00 74 994.0
20260504110612 11 213 4.8 8.0 0.00 0.00 0.00 72 993.5
20260504110108 11 205 8.0 9.7 0.00 0.00 0.00 72 993.6